Location: Beadle
(51.4667°N, 109.0000°W)
Time: 17:37:01
(UTC+00:00)

O/OREOS (USA 219) - Pass Details

Date: 01 July 2022
Orbit: 621 x 646 km, 72.0° (Epoch: 22 May)

Event Time Altitude Azimuth Distance (km) Brightness Sun altitude
Rises 05:32:14 0° 337° (NNW) 2,962 ? -11.8°
Reaches altitude 10° 05:35:17 10° 358° (N) 2,053 ? -12.0°
Maximum altitude 05:38:16 17° 39° (NE) 1,647 ? -12.2°
Drops below altitude 10° 05:41:15 10° 79° (E) 2,051 ? -12.3°
Enters shadow 05:44:12 - 100° (E) 2,930 ? -12.5°
